Location: Newark
(34.1333°N, 7.9667°W)
Time: 11:31:14
(UTC+00:00)

ISS - Pass Details

Date: 04 October 2021
Orbit: 417 x 423 km, 51.6° (Epoch: 18 October)

Event Time Altitude Azimuth Distance (km) Brightness Sun altitude
Rises 19:07:07 0° 324° (NW) 2,362 0.7 -12.3°
Reaches altitude 10° 19:09:31 10° 340° (NNW) 1,497 -0.6 -12.8°
Maximum altitude 19:12:16 23° 34° (NE) 946 -2.3 -13.3°
Enters shadow 19:13:09 20° 59° (ENE) 1,018 -2.3 -13.5°
